SIA72 WSSS-RPLL

Flight info

Callsign SIA72
Flight time N/A
Altitude 39000
Route TOMAN3A TOMAN L625 LUSMO N884 LUBAN LUBAN1A
Aircraft B742/H-SDFHIRWXY/L

Departure

Time 2026-05-06 19:21
Airport Singapore Changi Airport (WSSS)

Arrival

Time N/A
Airport Ninoy Aquino International Airport (RPLL)
Time Latitude Longitude Altitude Speed Heading
2026-05-06 18:29 1.36418 103.98894 30 ft 0 kts 114°
2026-05-06 19:11 1.36419 103.98893 30 ft 1 kts 114°
2026-05-06 19:11 1.36425 103.98879 30 ft 2 kts 114°
2026-05-06 19:11 1.36431 103.98865 30 ft 2 kts 114°
2026-05-06 19:11 1.36437 103.98852 30 ft 2 kts 114°
2026-05-06 19:12 1.36443 103.98838 30 ft 2 kts 114°
2026-05-06 19:12 1.36451 103.98825 30 ft 2 kts 133°
2026-05-06 19:12 1.36462 103.98816 30 ft 2 kts 154°
2026-05-06 19:12 1.36477 103.98811 30 ft 2 kts 173°
2026-05-06 19:13 1.36492 103.98811 30 ft 2 kts 193°
2026-05-06 19:13 1.36499 103.98814 30 ft 1 kts 202°
2026-05-06 19:13 1.36501 103.98815 30 ft 0 kts 201°
2026-05-06 19:15 1.36500 103.98814 30 ft 1 kts 201°
2026-05-06 19:16 1.36459 103.98798 30 ft 11 kts 201°
2026-05-06 19:16 1.36395 103.98751 30 ft 11 kts 262°
2026-05-06 19:16 1.36414 103.98671 30 ft 13 kts 292°
2026-05-06 19:16 1.36399 103.98575 30 ft 17 kts 208°
2026-05-06 19:17 1.36316 103.98541 30 ft 13 kts 203°
2026-05-06 19:17 1.36199 103.98492 30 ft 22 kts 203°
2026-05-06 19:17 1.36058 103.98432 30 ft 21 kts 204°
2026-05-06 19:17 1.35924 103.98375 30 ft 20 kts 203°
2026-05-06 19:18 1.35783 103.98315 30 ft 26 kts 203°
2026-05-06 19:18 1.35612 103.98243 30 ft 26 kts 203°
2026-05-06 19:18 1.35446 103.98173 30 ft 24 kts 203°
2026-05-06 19:18 1.35291 103.98108 30 ft 23 kts 203°
2026-05-06 19:19 1.35144 103.98046 30 ft 22 kts 203°
2026-05-06 19:19 1.35009 103.97989 30 ft 15 kts 202°
2026-05-06 19:19 1.34972 103.97923 30 ft 10 kts 281°
2026-05-06 19:19 1.34996 103.97860 30 ft 8 kts 297°
2026-05-06 19:20 1.35034 103.97826 30 ft 6 kts 341°
2026-05-06 19:20 1.35094 103.97830 30 ft 13 kts 20°
2026-05-06 19:20 1.35182 103.97868 30 ft 19 kts 23°
2026-05-06 19:20 1.35486 103.97994 31 ft 80 kts 24°
2026-05-06 19:21 1.36214 103.98303 31 ft 143 kts 23°
2026-05-06 19:21 1.37244 103.98739 316 ft 167 kts 23°
2026-05-06 19:21 1.38302 103.99188 917 ft 169 kts 23°
2026-05-06 19:21 1.39408 103.99648 1450 ft 178 kts 23°
2026-05-06 19:22 1.40556 104.00124 1855 ft 180 kts 25°
2026-05-06 19:22 1.41768 104.00652 2061 ft 202 kts 25°
2026-05-06 19:22 1.43150 104.01247 2404 ft 230 kts 24°
2026-05-06 19:22 1.44707 104.01890 2954 ft 252 kts 23°
2026-05-06 19:23 1.46311 104.02566 3895 ft 247 kts 25°
2026-05-06 19:23 1.47744 104.03494 4304 ft 253 kts 48°
2026-05-06 19:23 1.48600 104.05056 4646 ft 262 kts 78°
2026-05-06 19:23 1.48540 104.06856 5158 ft 265 kts 108°
2026-05-06 19:24 1.47831 104.08541 5758 ft 264 kts 114°
2026-05-06 19:24 1.47038 104.10199 6289 ft 267 kts 115°
2026-05-06 19:24 1.46238 104.11878 6831 ft 269 kts 114°
2026-05-06 19:24 1.45449 104.13564 7432 ft 269 kts 114°
2026-05-06 19:25 1.44657 104.15268 7951 ft 272 kts 114°
2026-05-06 19:25 1.43860 104.16989 8459 ft 275 kts 114°
2026-05-06 19:25 1.43054 104.18728 8988 ft 277 kts 114°
2026-05-06 19:25 1.42246 104.20474 9537 ft 278 kts 114°
2026-05-06 19:26 1.41432 104.22233 10029 ft 281 kts 114°
2026-05-06 19:26 1.40590 104.24052 10236 ft 297 kts 114°
2026-05-06 19:26 1.39696 104.25988 10378 ft 315 kts 114°
2026-05-06 19:26 1.38752 104.28027 10514 ft 333 kts 114°
2026-05-06 19:27 1.37755 104.30181 10655 ft 350 kts 114°
2026-05-06 19:27 1.36710 104.32439 10836 ft 365 kts 114°
2026-05-06 19:27 1.35646 104.34734 11504 ft 365 kts 114°
2026-05-06 19:27 1.34583 104.37029 12117 ft 366 kts 113°
2026-05-06 19:28 1.33710 104.39418 12640 ft 368 kts 103°
2026-05-06 19:28 1.33282 104.41939 13182 ft 370 kts 95°
2026-05-06 19:28 1.33148 104.44503 13721 ft 373 kts 90°
2026-05-06 19:28 1.33151 104.47099 14286 ft 375 kts 88°
2026-05-06 19:29 1.33205 104.49704 14819 ft 378 kts 88°
2026-05-06 19:29 1.33273 104.52343 15331 ft 381 kts 88°
2026-05-06 19:29 1.33341 104.54993 15873 ft 384 kts 88°
2026-05-06 19:29 1.33408 104.57659 16402 ft 386 kts 88°
2026-05-06 19:30 1.33474 104.60344 16889 ft 390 kts 88°
2026-05-06 19:30 1.33540 104.63051 17382 ft 393 kts 88°
2026-05-06 19:30 1.33606 104.65787 17875 ft 396 kts 88°
2026-05-06 19:30 1.33672 104.68534 18362 ft 399 kts 88°
2026-05-06 19:31 1.33738 104.71306 18843 ft 402 kts 88°
2026-05-06 19:31 1.33806 104.74101 19342 ft 404 kts 88°
2026-05-06 19:31 1.33941 104.79743 20282 ft 409 kts 89°
2026-05-06 19:32 1.34009 104.82596 20728 ft 412 kts 89°
2026-05-06 19:32 1.34078 104.85467 21168 ft 415 kts 89°
2026-05-06 19:32 1.34147 104.88351 21587 ft 418 kts 89°
2026-05-06 19:32 1.34216 104.91254 22018 ft 420 kts 89°
2026-05-06 19:33 1.34286 104.94175 22404 ft 423 kts 89°
2026-05-06 19:33 1.34356 104.97107 22793 ft 426 kts 89°
2026-05-06 19:33 1.34427 105.00070 23168 ft 429 kts 89°
2026-05-06 19:33 1.34498 105.03055 23548 ft 431 kts 89°
2026-05-06 19:34 1.34570 105.06048 23908 ft 434 kts 89°
2026-05-06 19:34 1.34642 105.09069 24247 ft 437 kts 89°
2026-05-06 19:34 1.34715 105.12110 24627 ft 439 kts 89°
2026-05-06 19:34 1.34788 105.15164 24996 ft 441 kts 89°
2026-05-06 19:35 1.34862 105.18227 25351 ft 444 kts 89°
2026-05-06 19:35 1.34936 105.21310 25666 ft 447 kts 89°
2026-05-06 19:35 1.35010 105.24408 26033 ft 448 kts 89°
2026-05-06 19:35 1.35084 105.27518 26349 ft 450 kts 89°
2026-05-06 19:36 1.35159 105.30654 26655 ft 453 kts 89°
2026-05-06 19:36 1.35235 105.33803 26937 ft 456 kts 89°
2026-05-06 19:36 1.35310 105.36969 27241 ft 458 kts 89°
2026-05-06 19:36 1.35386 105.40151 27516 ft 460 kts 89°
2026-05-06 19:37 1.35463 105.43353 27781 ft 463 kts 89°
2026-05-06 19:37 1.35539 105.46574 28027 ft 465 kts 89°
2026-05-06 19:37 1.35617 105.49805 28321 ft 467 kts 89°
2026-05-06 19:37 1.35694 105.53046 28603 ft 468 kts 88°
2026-05-06 19:38 1.35771 105.56295 28882 ft 469 kts 88°
2026-05-06 19:38 1.35849 105.59553 29114 ft 472 kts 88°
2026-05-06 19:38 1.35927 105.62827 29352 ft 473 kts 88°
2026-05-06 19:38 1.36005 105.66121 29601 ft 475 kts 88°
2026-05-06 19:39 1.36105 105.69419 29813 ft 477 kts 85°
2026-05-06 19:39 1.36665 105.72681 30020 ft 478 kts 76°
2026-05-06 19:39 1.37794 105.75793 30342 ft 477 kts 64°
2026-05-06 19:39 1.39554 105.78585 30664 ft 477 kts 52°
2026-05-06 19:40 1.41878 105.80949 30957 ft 478 kts 40°
2026-05-06 19:40 1.44578 105.82879 31276 ft 478 kts 33°
2026-05-06 19:40 1.47450 105.84566 31589 ft 478 kts 30°
2026-05-06 19:40 1.50389 105.86137 31885 ft 477 kts 29°
2026-05-06 19:41 1.53346 105.87661 32213 ft 476 kts 28°
2026-05-06 19:41 1.56310 105.89175 32552 ft 475 kts 28°
2026-05-06 19:41 1.59287 105.90698 32912 ft 474 kts 28°
2026-05-06 19:41 1.62242 105.92216 33276 ft 473 kts 28°
2026-05-06 19:42 1.65182 105.93731 33661 ft 472 kts 29°
2026-05-06 19:42 1.68106 105.95241 34015 ft 470 kts 29°
2026-05-06 19:42 1.71012 105.96743 34342 ft 469 kts 29°
2026-05-06 19:42 1.73912 105.98244 34686 ft 467 kts 29°
2026-05-06 19:43 1.76802 105.99740 35033 ft 466 kts 29°
2026-05-06 19:43 1.79681 106.01231 35281 ft 466 kts 29°
2026-05-06 19:43 1.82568 106.02726 35502 ft 466 kts 29°
2026-05-06 19:43 1.85447 106.04217 35734 ft 466 kts 29°
2026-05-06 19:44 1.88324 106.05706 35967 ft 465 kts 29°
2026-05-06 19:44 1.91200 106.07195 36225 ft 464 kts 29°
2026-05-06 19:44 1.94071 106.08680 36428 ft 464 kts 29°
2026-05-06 19:44 1.96946 106.10167 36604 ft 465 kts 29°
2026-05-06 19:45 1.99824 106.11656 36795 ft 464 kts 29°
2026-05-06 19:45 2.02699 106.13143 36993 ft 464 kts 29°
2026-05-06 19:45 2.05570 106.14628 37180 ft 464 kts 29°
2026-05-06 19:45 2.08445 106.16115 37364 ft 463 kts 29°
2026-05-06 19:46 2.11317 106.17601 37546 ft 463 kts 29°
2026-05-06 19:46 2.14186 106.19086 37717 ft 463 kts 29°
2026-05-06 19:46 2.17050 106.20567 37873 ft 463 kts 29°
2026-05-06 19:46 2.19232 106.21696 37982 ft 463 kts 29°
2026-05-06 19:47 2.22103 106.23182 38113 ft 463 kts 29°
2026-05-06 19:47 2.24967 106.24663 38289 ft 462 kts 29°
2026-05-06 19:47 2.27821 106.26140 38458 ft 461 kts 29°
2026-05-06 19:47 2.30673 106.27615 38618 ft 461 kts 29°
2026-05-06 19:48 2.33523 106.29090 38776 ft 461 kts 29°
2026-05-06 19:48 2.36376 106.30567 38801 ft 463 kts 29°
2026-05-06 19:48 2.42134 106.33547 38802 ft 467 kts 29°
2026-05-06 19:49 2.47946 106.36556 38801 ft 472 kts 29°
2026-05-06 19:49 2.53826 106.39600 38802 ft 477 kts 29°
2026-05-06 19:50 2.59759 106.42672 38802 ft 482 kts 29°
2026-05-06 19:50 2.65766 106.45783 38802 ft 487 kts 29°
2026-05-06 19:51 2.71810 106.48914 38801 ft 490 kts 29°
2026-05-06 19:51 2.77886 106.52061 38801 ft 492 kts 29°
2026-05-06 19:52 2.83980 106.55217 38801 ft 493 kts 29°
2026-05-06 19:52 2.90087 106.58377 38801 ft 494 kts 29°
2026-05-06 19:53 2.96205 106.61543 38801 ft 495 kts 29°
2026-05-06 19:53 3.02327 106.64711 38801 ft 495 kts 29°
2026-05-06 19:54 3.08455 106.67881 38800 ft 495 kts 29°
2026-05-06 19:54 3.14580 106.71051 38793 ft 495 kts 29°
2026-05-06 19:55 3.20703 106.74220 38788 ft 492 kts 29°
2026-05-06 19:55 3.26705 106.77326 38783 ft 478 kts 29°
2026-05-06 19:56 3.32595 106.80380 38785 ft 476 kts 29°
2026-05-06 19:56 3.38502 106.83444 38790 ft 480 kts 29°
2026-05-06 19:57 3.44457 106.86531 38794 ft 481 kts 29°
2026-05-06 19:57 3.50397 106.89608 38799 ft 479 kts 29°
2026-05-06 19:58 3.55935 106.93209 38806 ft 474 kts 44°
2026-05-06 19:58 3.60472 106.97985 38804 ft 474 kts 51°
2026-05-06 19:59 3.64660 107.03088 38805 ft 474 kts 52°
2026-05-06 19:59 3.68780 107.08226 38805 ft 473 kts 52°
2026-05-06 20:00 3.72910 107.13369 38805 ft 474 kts 52°
2026-05-06 20:00 3.77045 107.18507 38805 ft 474 kts 52°
2026-05-06 20:01 3.81179 107.23639 38805 ft 473 kts 52°
2026-05-06 20:01 3.85300 107.28756 38804 ft 472 kts 52°
2026-05-06 20:02 3.89428 107.33883 38806 ft 473 kts 52°
2026-05-06 20:02 3.93558 107.39013 38803 ft 473 kts 52°
2026-05-06 20:03 3.97684 107.44139 38807 ft 473 kts 52°
2026-05-06 20:03 4.01809 107.49265 38806 ft 473 kts 52°
2026-05-06 20:04 4.05934 107.54391 38804 ft 472 kts 52°
2026-05-06 20:04 4.10055 107.59513 38803 ft 473 kts 52°
2026-05-06 20:05 4.14181 107.64643 38806 ft 474 kts 52°
2026-05-06 20:05 4.18318 107.69788 38803 ft 474 kts 52°
2026-05-06 20:06 4.22450 107.74927 38805 ft 474 kts 52°
2026-05-06 20:06 4.26578 107.80062 38802 ft 474 kts 52°
2026-05-06 20:07 4.30717 107.85212 38804 ft 475 kts 52°
2026-05-06 20:07 4.34863 107.90371 38802 ft 475 kts 52°
2026-05-06 20:08 4.39023 107.95550 38801 ft 476 kts 52°
2026-05-06 20:08 4.43182 108.00726 38794 ft 476 kts 52°
2026-05-06 20:09 4.47327 108.05888 38787 ft 474 kts 52°
2026-05-06 20:09 4.51466 108.11042 38788 ft 475 kts 52°
2026-05-06 20:10 4.55628 108.16227 38799 ft 477 kts 52°
2026-05-06 20:10 4.59801 108.21426 38802 ft 477 kts 52°
2026-05-06 20:11 4.63966 108.26616 38809 ft 477 kts 52°
2026-05-06 20:11 4.68124 108.31799 38806 ft 477 kts 52°
2026-05-06 20:12 4.72294 108.36989 38803 ft 476 kts 52°
2026-05-06 20:12 4.76468 108.42156 38803 ft 477 kts 52°
2026-05-06 20:13 4.80657 108.47330 38807 ft 478 kts 52°
2026-05-06 20:13 4.84865 108.52525 38806 ft 479 kts 52°
2026-05-06 20:14 4.89070 108.57720 38803 ft 478 kts 52°
2026-05-06 20:14 4.93267 108.62904 38805 ft 478 kts 52°
2026-05-06 20:15 4.97465 108.68092 38802 ft 479 kts 52°
2026-05-06 20:15 5.01667 108.73285 38804 ft 480 kts 52°
2026-05-06 20:16 5.05876 108.78488 38806 ft 481 kts 52°
2026-05-06 20:16 5.10082 108.83690 38809 ft 480 kts 52°
2026-05-06 20:17 5.14291 108.88895 38806 ft 480 kts 52°
2026-05-06 20:17 5.18504 108.94108 38808 ft 480 kts 52°
2026-05-06 20:18 5.22712 108.99315 38805 ft 479 kts 52°
2026-05-06 20:18 5.26902 109.04501 38804 ft 479 kts 52°
2026-05-06 20:19 5.31105 109.09704 38805 ft 481 kts 52°
2026-05-06 20:19 5.35312 109.14914 38803 ft 480 kts 52°
2026-05-06 20:20 5.39509 109.20111 38804 ft 479 kts 52°
2026-05-06 20:20 5.43703 109.25307 38804 ft 479 kts 52°
2026-05-06 20:21 5.47897 109.30505 38804 ft 478 kts 52°
2026-05-06 20:21 5.52081 109.35689 38804 ft 478 kts 52°
2026-05-06 20:22 5.56269 109.40882 38805 ft 478 kts 52°
2026-05-06 20:22 5.60452 109.46070 38812 ft 478 kts 52°
2026-05-06 20:23 5.64642 109.51268 38820 ft 479 kts 52°
2026-05-06 20:23 5.68831 109.56465 38820 ft 479 kts 52°
2026-05-06 20:24 5.73011 109.61653 38823 ft 478 kts 52°
2026-05-06 20:24 5.77192 109.66843 38824 ft 479 kts 52°
2026-05-06 20:25 5.81378 109.72042 38824 ft 479 kts 52°
2026-05-06 20:25 5.85562 109.77239 38824 ft 479 kts 52°
2026-05-06 20:26 5.89750 109.82441 38821 ft 480 kts 52°
2026-05-06 20:26 5.93939 109.87647 38812 ft 479 kts 52°
2026-05-06 20:27 5.98128 109.92854 38804 ft 478 kts 52°
2026-05-06 20:27 6.02309 109.98053 38803 ft 479 kts 52°
2026-05-06 20:28 6.06499 110.03263 38805 ft 479 kts 52°
2026-05-06 20:28 6.10691 110.08479 38804 ft 479 kts 52°
2026-05-06 20:29 6.14879 110.13690 38805 ft 480 kts 52°
2026-05-06 20:29 6.19071 110.18909 38803 ft 479 kts 52°
2026-05-06 20:30 6.25354 110.26732 38803 ft 480 kts 52°
2026-05-06 20:31 6.29545 110.31953 38803 ft 479 kts 52°
2026-05-06 20:31 6.33734 110.37172 38803 ft 479 kts 52°
2026-05-06 20:32 6.37924 110.42394 38802 ft 481 kts 52°
2026-05-06 20:32 6.42130 110.47637 38804 ft 481 kts 52°
2026-05-06 20:33 6.46336 110.52882 38805 ft 481 kts 52°
2026-05-06 20:33 6.50533 110.58117 38805 ft 481 kts 52°
2026-05-06 20:34 6.54744 110.63373 38804 ft 482 kts 52°
2026-05-06 20:34 6.58948 110.68619 38805 ft 480 kts 52°
2026-05-06 20:35 6.63138 110.73851 38804 ft 481 kts 52°
2026-05-06 20:35 6.67342 110.79101 38808 ft 482 kts 53°
2026-05-06 20:36 6.71546 110.84353 38806 ft 483 kts 52°
2026-05-06 20:36 6.75771 110.89633 38809 ft 485 kts 53°
2026-05-06 20:37 6.79986 110.94901 38820 ft 483 kts 53°
2026-05-06 20:37 6.84203 111.00175 38825 ft 484 kts 53°
2026-05-06 20:38 6.88432 111.05465 38825 ft 484 kts 53°
2026-05-06 20:38 6.92639 111.10729 38825 ft 483 kts 53°
2026-05-06 20:39 6.96857 111.16008 38825 ft 484 kts 53°
2026-05-06 20:39 7.01087 111.21305 38823 ft 485 kts 52°
2026-05-06 20:40 7.05317 111.26602 38820 ft 483 kts 52°
2026-05-06 20:40 7.09521 111.31870 38814 ft 483 kts 52°
2026-05-06 20:41 7.13736 111.37151 38806 ft 483 kts 52°
2026-05-06 20:41 7.17937 111.42419 38801 ft 482 kts 52°
2026-05-06 20:42 7.22145 111.47695 38804 ft 483 kts 52°
2026-05-06 20:42 7.26345 111.52968 38804 ft 483 kts 52°
2026-05-06 20:43 7.30541 111.58260 38806 ft 484 kts 52°
2026-05-06 20:43 7.34738 111.63566 38803 ft 484 kts 52°
2026-05-06 20:44 7.38922 111.68860 38805 ft 483 kts 52°
2026-05-06 20:44 7.43102 111.74150 38805 ft 483 kts 52°
2026-05-06 20:45 7.47296 111.79460 38804 ft 484 kts 52°
2026-05-06 20:45 7.51496 111.84780 38804 ft 485 kts 52°
2026-05-06 20:46 7.55687 111.90089 38804 ft 483 kts 52°
2026-05-06 20:46 7.59863 111.95382 38805 ft 483 kts 52°
2026-05-06 20:47 7.64058 112.00700 38804 ft 485 kts 52°
2026-05-06 20:47 7.68264 112.06035 38804 ft 485 kts 52°
2026-05-06 20:48 7.72464 112.11363 38804 ft 485 kts 52°
2026-05-06 20:48 7.76667 112.16697 38804 ft 485 kts 52°
2026-05-06 20:49 7.80849 112.22007 38805 ft 483 kts 52°
2026-05-06 20:49 7.85022 112.27307 38805 ft 483 kts 52°
2026-05-06 20:50 7.89214 112.32633 38804 ft 485 kts 52°
2026-05-06 20:50 7.93409 112.37966 38811 ft 486 kts 52°
2026-05-06 20:51 7.97596 112.43289 38820 ft 484 kts 52°
2026-05-06 20:51 8.01780 112.48611 38825 ft 484 kts 52°
2026-05-06 20:52 8.05961 112.53930 38823 ft 484 kts 52°
2026-05-06 20:52 8.10128 112.59234 38822 ft 482 kts 52°
2026-05-06 20:53 8.14296 112.64543 38819 ft 484 kts 51°
2026-05-06 20:53 8.18475 112.69867 38819 ft 484 kts 51°
2026-05-06 20:54 8.22650 112.75186 38810 ft 483 kts 51°
2026-05-06 20:54 8.26829 112.80514 38810 ft 484 kts 51°
2026-05-06 20:55 8.31003 112.85836 38804 ft 483 kts 51°
2026-05-06 20:55 8.35160 112.91140 38804 ft 481 kts 51°
2026-05-06 20:56 8.39320 112.96448 38805 ft 483 kts 51°
2026-05-06 20:56 8.43475 113.01754 38806 ft 482 kts 51°
2026-05-06 20:57 8.47637 113.07070 38806 ft 484 kts 51°
2026-05-06 20:57 8.51810 113.12401 38805 ft 484 kts 51°
2026-05-06 20:58 8.55980 113.17732 38800 ft 483 kts 51°
2026-05-06 20:58 8.60140 113.23051 38809 ft 483 kts 51°
2026-05-06 20:59 8.64304 113.28378 38807 ft 482 kts 51°
2026-05-06 20:59 8.68451 113.33685 38808 ft 482 kts 51°
2026-05-06 21:00 8.72611 113.39011 38801 ft 484 kts 51°
2026-05-06 21:00 8.76777 113.44347 38804 ft 484 kts 51°
2026-05-06 21:01 8.80935 113.49674 38809 ft 483 kts 51°
2026-05-06 21:01 8.85096 113.55008 38804 ft 483 kts 51°
2026-05-06 21:02 8.89250 113.60334 38807 ft 482 kts 51°
2026-05-06 21:02 8.93399 113.65657 38811 ft 482 kts 51°
2026-05-06 21:03 8.97553 113.70988 38825 ft 484 kts 51°
2026-05-06 21:03 9.01721 113.76340 38825 ft 484 kts 51°
2026-05-06 21:04 9.05877 113.81677 38824 ft 484 kts 51°
2026-05-06 21:04 9.10041 113.87028 38825 ft 484 kts 51°
2026-05-06 21:05 9.14208 113.92385 38825 ft 484 kts 51°
2026-05-06 21:05 9.18366 113.97733 38825 ft 484 kts 51°
2026-05-06 21:06 9.22527 114.03088 38825 ft 484 kts 51°
2026-05-06 21:06 9.26693 114.08449 38818 ft 485 kts 51°
2026-05-06 21:07 9.30848 114.13800 38807 ft 482 kts 51°
2026-05-06 21:07 9.34989 114.19135 38804 ft 483 kts 51°
2026-05-06 21:08 9.39146 114.24492 38804 ft 486 kts 51°
2026-05-06 21:08 9.43325 114.29880 38803 ft 485 kts 51°